Champaign, IL

9:21 PM CDT on May 28, 2017 (GMT -0500)
Univ Of Illinois-Willard

Weather History for KCMI - December, 2013

Change the Weather History Date:

Monday, December 16, 2013

  Actual Average Record
Temperature  
Mean Temperature 21 °F 28 °F  
Max Temperature 25 °F 36 °F 58 °F (2015)
Min Temperature 16 °F 21 °F 9 °F (2000)
Degree Days  
Heating Degree Days 44 37  
Month to date heating degree days 624 544  
Since 1 July heating degree days 1818 1708  
Cooling Degree Days 0 0  
Month to date cooling degree days 0 0  
Year to date cooling degree days 1067 945  
Moisture  
Dew Point 17 °F    
Average Humidity 90    
Maximum Humidity 100    
Minimum Humidity 80    
Precipitation  
Precipitation T in 0.07 in 0.44 in (2001)
Month to date precipitation 0.74 1.23  
Year to date precipitation 30.63 38.43  
Sea Level Pressure  
Sea Level Pressure 30.08 in    
Wind  
Wind Speed 9 mph (NE)    
Max Wind Speed 17 mph    
Max Gust Speed 21 mph    
Visibility 4 miles    
Events Fog , Snow    
T = Trace of Precipitation, MM = Missing Value Source: NWS Daily Summary

Daily Weather History Graph

Daily Weather History Graph

Search for Another Location

Airport or City:

Trip Planner

Search our weather history database for the weather conditions in past years. The results will help you decide how hot, cold, wet, or windy it might be!

Date:

Astronomy

Dec. 16, 2013 Rise Set
Actual Time 7:08 AM CST 4:29 PM CST
Civil Twilight 6:38 AM CST 4:59 PM CST
Nautical Twilight 6:04 AM CST 5:33 PM CST
Astronomical Twilight 5:31 AM CST 6:06 PM CST
Moon 4:19 PM CST (12/16) 6:16 AM CST (12/16)
Length of Visible Light 10h 21m
Length of Day
9h 20m
Full, 100% of the Moon is Illuminated
Dec 16
Full
Dec 17
Full
Dec 25
Last Quarter
Jan 1
New
Jan 7
First Quarter

Hourly Weather History & Observations

Time (CST) Temp. Windchill Dew Point Humidity Pressure Visibility Wind Dir Wind Speed Gust Speed Precip Events Conditions
12:10 AM 19.4 °F 12.8 °F 15.8 °F 86% 30.09 in 4.0 mi NE 4.6 mph - 0.00 in Snow Light Snow
12:53 AM 19.0 °F 11.1 °F 16.0 °F 88% 30.11 in 4.0 mi ENE 5.8 mph - 0.00 in Snow Light Snow
1:53 AM 18.0 °F 5.4 °F 15.1 °F 88% 30.10 in 3.0 mi ENE 11.5 mph - 0.00 in Snow Light Snow
2:53 AM 17.1 °F 4.3 °F 14.0 °F 88% 30.12 in 7.0 mi NE 11.5 mph - 0.00 in   Overcast
3:07 AM 17.6 °F 5.7 °F 12.2 °F 79% 30.08 in 7.0 mi NE 10.4 mph - N/A   Overcast
3:53 AM 16.0 °F 2.9 °F 12.0 °F 84% 30.10 in 8.0 mi ENE 11.5 mph - 0.00 in   Overcast
4:53 AM 16.0 °F 2.9 °F 12.0 °F 84% 30.11 in 8.0 mi NE 11.5 mph - 0.00 in   Overcast
5:35 AM 15.8 °F 2.1 °F 12.2 °F 86% 30.06 in 10.0 mi ENE 12.7 mph - N/A   Overcast
5:53 AM 16.0 °F 2.3 °F 12.0 °F 84% 30.11 in 10.0 mi ENE 12.7 mph - N/A   Overcast
6:53 AM 16.0 °F 1.7 °F 12.0 °F 84% 30.11 in 10.0 mi ENE 13.8 mph - N/A   Overcast
7:53 AM 17.1 °F 3.6 °F 12.9 °F 84% 30.10 in 10.0 mi East 12.7 mph - N/A   Overcast
8:53 AM 17.1 °F 3.6 °F 12.9 °F 84% 30.12 in 10.0 mi ENE 12.7 mph - N/A   Overcast
9:53 AM 18.0 °F 6.1 °F 14.0 °F 84% 30.13 in 5.0 mi ENE 10.4 mph - N/A   Overcast
10:53 AM 19.0 °F 7.5 °F 16.0 °F 88% 30.12 in 4.0 mi ENE 10.4 mph - N/A   Overcast
11:29 AM 19.4 °F 7.2 °F 17.6 °F 93% 30.04 in 1.8 mi ENE 11.5 mph - N/A   Overcast
11:53 AM 19.9 °F 10.1 °F 18.0 °F 92% 30.07 in 0.5 mi ENE 8.1 mph - N/A   Overcast
12:53 PM 19.9 °F 10.1 °F 19.0 °F 96% 30.06 in 0.5 mi ENE 8.1 mph - N/A   Overcast
1:53 PM 21.9 °F 15.7 °F 19.9 °F 92% 30.06 in 0.5 mi NE 4.6 mph - N/A   Overcast
2:05 PM 21.2 °F 16.4 °F 19.4 °F 93% 30.02 in 0.2 mi NE 3.5 mph - N/A Fog Light Freezing Fog
2:53 PM 21.9 °F 14.5 °F 19.9 °F 92% 30.05 in 0.2 mi East 5.8 mph - N/A Fog Light Freezing Fog
3:53 PM 23.0 °F 15.8 °F 21.0 °F 92% 30.04 in 0.2 mi ESE 5.8 mph - N/A Fog Light Freezing Fog
4:53 PM 23.0 °F 18.4 °F 21.9 °F 96% 30.06 in 0.2 mi South 3.5 mph - N/A Fog Light Freezing Fog
5:53 PM 24.1 °F - 21.9 °F 91% 30.05 in 0.2 mi Calm Calm - N/A Fog Light Freezing Fog
6:53 PM 24.1 °F 17.0 °F 23.0 °F 96% 30.06 in 0.2 mi SW 5.8 mph - N/A Fog Light Freezing Fog
7:53 PM 24.1 °F 14.4 °F 21.9 °F 91% 30.08 in 0.2 mi West 9.2 mph - N/A Fog Light Freezing Fog
8:15 PM 24.8 °F 15.3 °F 23.0 °F 93% 30.04 in 0.2 mi West 9.2 mph - N/A Fog Light Freezing Fog
8:53 PM 24.1 °F 13.7 °F 21.9 °F 91% 30.07 in 0.5 mi West 10.4 mph - N/A Fog Light Freezing Fog
9:53 PM 24.1 °F 13.7 °F 21.9 °F 91% 30.09 in 0.5 mi West 10.4 mph - N/A Fog Light Freezing Fog
10:50 PM 24.8 °F 11.9 °F 21.2 °F 86% 30.08 in 1.0 mi WNW 16.1 mph - N/A   Overcast
10:53 PM 23.0 °F 10.6 °F 21.9 °F 96% 30.12 in 1.0 mi WNW 13.8 mph - N/A   Overcast